Overview Statistics Trail Chart Weather Telemetry Raw packets
 

This is the latest recevied weather packets stored in our database for station/object KN1OBI-13. If no packets are shown the sender has not sent any weather packets the latest 10 day(s).

<< 38 39 40 41 42 43 44 >>
Time Temp. Humidity Pressure Rain* Wind** Luminosity Snow
1788037591 27.22° C 41% 1001 hPa 0 mm - - -
1788036991 26.67° C 42% 1001 hPa 0 mm - - -
1788036391 26.67° C 44% 1001.1 hPa 0 mm - - -
1788035791 26.67° C 44% 1001.1 hPa 0 mm - - -
1788035191 26.11° C 44% 1000.9 hPa 0 mm - - -
1788034591 26.11° C 44% 1001.1 hPa 0 mm - - -
1788033991 26.67° C 44% 1001 hPa 0 mm - - -
1788033391 26.67° C 46% 1001.2 hPa 0 mm - - -
1788032791 26.67° C 45% 1001.3 hPa 0 mm - - -
1788032191 25.56° C 46% 1001.2 hPa 0 mm - - -
1788031591 25° C 45% 1001.4 hPa 0 mm - - -
1788030991 25° C 44% 1001.4 hPa 0 mm - - -
1788030391 25° C 44% 1001.4 hPa 0 mm - - -
1788029791 25° C 45% 1001.3 hPa 0 mm - - -
1788029191 24.44° C 43% 1001.7 hPa 0 mm - - -
1788028591 24.44° C 44% 1001.4 hPa 0 mm - - -
1788027991 24.44° C 45% 1001.8 hPa 0 mm - - -
1788027391 23.89° C 44% 1001.8 hPa 0 mm - - -
1788026791 23.89° C 43% 1001.8 hPa 0 mm - - -
1788026191 23.89° C 45% 1001.9 hPa 0 mm - - -
1788025590 23.89° C 47% 1001.9 hPa 0 mm - - -
1788024991 23.89° C 46% 1001.8 hPa 0 mm - - -
1788024391 23.89° C 46% 1001.9 hPa 0 mm - - -
1788023791 23.33° C 48% 1002.3 hPa 0 mm - - -
1788023191 23.33° C 47% 1002.2 hPa 0 mm - - -

* Rain latest hour (hover to see other rain measurements)
** Current wind speed in m/s (hover to see current wind gust speed)